TimeCET,TemperatureF,Dew PointF,Humidity,Sea Level PressureIn,VisibilityMPH,Wind Direction,Wind SpeedMPH,Gust SpeedMPH,PrecipitationIn,Events,Conditions,WindDirDegrees,DateUTC
12:55 AM,62.6,57.2,82,29.18,6.2,East,4.6,-,N/A,Rain,Light Rain,90,2012-10-27 22:55:00
1:55 AM,62.6,57.2,82,29.18,6.2,East,4.6,-,N/A,,Partly Cloudy,80,2012-10-27 23:55:00
2:00 AM,63,58,79,29.20,12,East,4.6,,,Rain,Light Rain,80,2012-10-28 00:00:00
2:25 AM,62.6,59.0,88,29.18,6.2,East,4.6,-,N/A,Rain-Thunderstorm,Light Thunderstorms and Rain,80,2012-10-28 00:25:00
2:55 AM,62.6,57.2,82,29.18,6.2,East,5.8,-,N/A,Rain-Thunderstorm,Light Thunderstorms and Rain,90,2012-10-28 00:55:00
2:55 AM,53.6,42.8,67,29.24,6.2,NE,26.5,47.2,N/A,,Mostly Cloudy,40,2012-10-28 01:55:00
4:55 AM,44.6,39.2,81,29.33,6.2,ENE,31.1,59.8,N/A,,Mostly Cloudy,60,2012-10-28 03:55:00
5:55 AM,44.6,35.6,71,29.33,6.2,ENE,32.2,71.3,N/A,Rain-Thunderstorm,Light Thunderstorms and Rain,60,2012-10-28 04:55:00
6:55 AM,46.4,35.6,66,29.36,6.2,ENE,33.4,67.9,N/A,,Scattered Clouds,60,2012-10-28 05:55:00
7:00 AM,46,35,56,29.39,6,ENE,33.4,,,Thunderstorm,Light Thunderstorm,60,2012-10-28 06:00:00
7:55 AM,44.6,33.8,66,29.39,6.2,ENE,32.2,63.3,N/A,,Mostly Cloudy,60,2012-10-28 06:55:00
8:55 AM,46.4,32.0,57,29.44,6.2,ENE,33.4,64.4,N/A,,Scattered Clouds,60,2012-10-28 07:55:00
9:55 AM,48.2,30.2,50,29.44,6.2,ENE,31.1,63.3,N/A,,Partly Cloudy,60,2012-10-28 08:55:00
10:55 AM,46.4,30.2,53,29.44,6.2,NE,31.1,65.6,N/A,,Scattered Clouds,50,2012-10-28 09:55:00
12:55 PM,44.6,33.8,66,29.47,6.2,NE,29.9,65.6,N/A,Rain,Light Rain,50,2012-10-28 11:55:00
1:00 PM,45,33,52,29.48,6,NE,29.9,,,Rain,Light Rain,50,2012-10-28 12:00:00
1:55 PM,44.6,30.2,57,29.47,6.2,ENE,35.7,69.0,N/A,,Scattered Clouds,60,2012-10-28 12:55:00
2:55 PM,44.6,30.2,57,29.50,6.2,ENE,29.9,61.0,N/A,,Light Drizzle,60,2012-10-28 13:55:00
3:55 PM,42.8,32.0,66,29.53,6.2,ENE,28.8,62.1,N/A,Rain,Light Rain,60,2012-10-28 14:55:00
4:55 PM,42.8,32.0,66,29.56,6.2,ENE,29.9,70.2,N/A,,Light Drizzle,60,2012-10-28 15:55:00
5:55 PM,44.6,28.4,53,29.59,6.2,ENE,24.2,54.1,N/A,,Scattered Clouds,60,2012-10-28 16:55:00
6:55 PM,44.6,28.4,53,29.62,6.2,ENE,28.8,61.0,N/A,,Scattered Clouds,60,2012-10-28 17:55:00
7:00 PM,45,29,40,29.63,6,ENE,28.8,,,,Partly Cloudy,60,2012-10-28 18:00:00
7:55 PM,44.6,26.6,49,29.62,6.2,ENE,25.3,64.4,N/A,,Scattered Clouds,60,2012-10-28 18:55:00
8:55 PM,42.8,28.4,57,29.62,6.2,ENE,27.6,52.9,N/A,,Scattered Clouds,60,2012-10-28 19:55:00
9:55 PM,44.6,26.6,49,29.65,6.2,ENE,27.6,54.1,N/A,,Scattered Clouds,70,2012-10-28 20:55:00
10:55 PM,44.6,26.6,49,29.65,6.2,ENE,24.2,47.2,N/A,,Scattered Clouds,60,2012-10-28 21:55:00